• In Deutschland
  • Länderverzeichnis
  • Für 7 Tage
  • Wassertemperatur
  • Satellitenkarten
  • Wetterkarte
  • Widgets
  • user-avatar
    Anmelden

    Stündliche Wetter Megri

    Heute, 26 Juni, Montag

    Zeit Temperatur Niederschläge Wind Luftdruck Luftfeuchtigkeit
    00:00 +16°C° 0 mm 3 m/S 624 mmHg 66%
    01:00 +14°C° 0 mm 3 m/S 624 mmHg 66%
    02:00 +14°C° 0 mm 3 m/S 624 mmHg 66%
    03:00 +14°C° 0 mm 3 m/S 624 mmHg 64%
    04:00 +14°C° 0 mm 3 m/S 624 mmHg 61%
    05:00 +16°C° 0 mm 3 m/S 625 mmHg 58%
    06:00 +17°C° 0 mm 3 m/S 625 mmHg 55%
    07:00 +18°C° 0 mm 3 m/S 626 mmHg 50%
    08:00 +20°C° 0 mm 3 m/S 627 mmHg 46%
    09:00 +22°C° 0 mm 4 m/S 627 mmHg 41%
    10:00 +23°C° 0 mm 4 m/S 627 mmHg 40%
    11:00 +25°C° 0 mm 4 m/S 627 mmHg 38%
    12:00 +26°C° 0 mm 4 m/S 627 mmHg 36%
    13:00 +27°C° 0 mm 4 m/S 627 mmHg 36%
    14:00 +27°C° 0 mm 4 m/S 627 mmHg 37%
    15:00 +27°C° 0 mm 4 m/S 627 mmHg 37%
    16:00 +26°C° 0 mm 4 m/S 627 mmHg 40%
    17:00 +26°C° 0 mm 4 m/S 626 mmHg 44%
    18:00 +25°C° 0 mm 5 m/S 626 mmHg 48%
    19:00 +22°C° 0 mm 4 m/S 626 mmHg 55%
    20:00 +20°C° 0 mm 4 m/S 625 mmHg 62%
    21:00 +18°C° 0 mm 3 m/S 625 mmHg 70%
    22:00 +17°C° 0 mm 3 m/S 625 mmHg 72%
    23:00 +17°C° 0 mm 3 m/S 625 mmHg 75%

    Morgen, 27 Juni, Dienstag

    Zeit Temperatur Niederschläge Wind Luftdruck Luftfeuchtigkeit
    00:00 +16°C° 0 mm 3 m/S 625 mmHg 78%
    01:00 +16°C° 0 mm 3 m/S 625 mmHg 78%
    02:00 +16°C° 0 mm 2 m/S 625 mmHg 78%
    03:00 +15°C° 0 mm 2 m/S 625 mmHg 78%
    04:00 +16°C° 0 mm 2 m/S 625 mmHg 74%
    05:00 +17°C° 0 mm 2 m/S 625 mmHg 70%
    06:00 +18°C° 0 mm 2 m/S 626 mmHg 66%
    07:00 +20°C° 0 mm 2 m/S 626 mmHg 57%
    08:00 +23°C° 0 mm 2 m/S 627 mmHg 48%
    09:00 +25°C° 0 mm 2 m/S 627 mmHg 39%
    10:00 +27°C° 0 mm 2 m/S 627 mmHg 35%
    11:00 +29°C° 0 mm 1 m/S 627 mmHg 31%
    12:00 +30°C° 0 mm 1 m/S 627 mmHg 27%
    13:00 +31°C° 0 mm 1 m/S 627 mmHg 25%
    14:00 +31°C° 0 mm 1 m/S 627 mmHg 24%
    15:00 +32°C° 0 mm 2 m/S 627 mmHg 23%
    16:00 +31°C° 0 mm 2 m/S 626 mmHg 26%
    17:00 +30°C° 0 mm 2 m/S 626 mmHg 29%
    18:00 +30°C° 0 mm 2 m/S 625 mmHg 32%
    19:00 +27°C° 0 mm 3 m/S 625 mmHg 41%
    20:00 +25°C° 0 mm 3 m/S 624 mmHg 51%
    21:00 +21°C° 0 mm 3 m/S 624 mmHg 60%
    22:00 +21°C° 0 mm 3 m/S 624 mmHg 63%
    23:00 +20°C° 0 mm 3 m/S 623 mmHg 65%

    übermorgen, 28 Juni, Mittwoch

    Zeit Temperatur Niederschläge Wind Luftdruck Luftfeuchtigkeit
    00:00 +19°C° 0 mm 2 m/S 623 mmHg 68%
    01:00 +19°C° 0 mm 2 m/S 623 mmHg 69%
    02:00 +19°C° 0 mm 2 m/S 623 mmHg 69%
    03:00 +18°C° 0 mm 2 m/S 623 mmHg 70%
    04:00 +19°C° 0 mm 2 m/S 623 mmHg 67%
    05:00 +20°C° 0 mm 2 m/S 623 mmHg 64%
    06:00 +21°C° 0 mm 2 m/S 624 mmHg 60%
    07:00 +24°C° 0 mm 2 m/S 624 mmHg 52%
    08:00 +26°C° 0 mm 2 m/S 625 mmHg 43%
    09:00 +29°C° 0 mm 2 m/S 626 mmHg 34%
    10:00 +30°C° 0 mm 2 m/S 626 mmHg 31%
    11:00 +31°C° 0 mm 2 m/S 626 mmHg 27%
    12:00 +33°C° 0 mm 1 m/S 626 mmHg 24%
    13:00 +34°C° 0 mm 2 m/S 626 mmHg 23%
    14:00 +35°C° 0 mm 2 m/S 625 mmHg 22%
    15:00 +35°C° 0 mm 2 m/S 625 mmHg 21%
    16:00 +34°C° 0 mm 3 m/S 624 mmHg 25%
    17:00 +33°C° 0 mm 3 m/S 624 mmHg 29%
    18:00 +30°C° 0 mm 4 m/S 623 mmHg 33%
    19:00 +28°C° 0 mm 4 m/S 623 mmHg 41%
    20:00 +25°C° 0 mm 4 m/S 622 mmHg 50%
    21:00 +22°C° 0 mm 4 m/S 622 mmHg 58%
    22:00 +21°C° 0 mm 3 m/S 622 mmHg 60%
    23:00 +20°C° 0 mm 3 m/S 622 mmHg 62%

    29 Juni, Donnerstag

    Zeit Temperatur Niederschläge Wind Luftdruck Luftfeuchtigkeit
    00:00 +20°C° 0 mm 3 m/S 622 mmHg 64%
    01:00 +19°C° 0 mm 3 m/S 622 mmHg 65%
    02:00 +19°C° 0 mm 3 m/S 621 mmHg 67%
    03:00 +18°C° 0 mm 2 m/S 621 mmHg 69%
    04:00 +19°C° 0 mm 2 m/S 622 mmHg 67%
    05:00 +19°C° 0 mm 2 m/S 622 mmHg 65%
    06:00 +20°C° 0 mm 2 m/S 623 mmHg 63%
    07:00 +22°C° 0 mm 3 m/S 623 mmHg 55%
    08:00 +25°C° 0 mm 3 m/S 624 mmHg 48%
    09:00 +27°C° 0 mm 3 m/S 625 mmHg 40%
    10:00 +28°C° 0 mm 3 m/S 625 mmHg 36%
    11:00 +29°C° 0 mm 3 m/S 625 mmHg 33%
    12:00 +31°C° 0 mm 3 m/S 625 mmHg 29%
    13:00 +31°C° 0,1 mm 3 m/S 624 mmHg 29%
    14:00 +31°C° 0,1 mm 3 m/S 624 mmHg 28%
    15:00 +33°C° 0,1 mm 4 m/S 624 mmHg 28%
    16:00 +30°C° 0,1 mm 4 m/S 623 mmHg 30%
    17:00 +29°C° 0,1 mm 5 m/S 623 mmHg 33%
    18:00 +28°C° 0,1 mm 5 m/S 622 mmHg 36%
    19:00 +26°C° 0 mm 5 m/S 622 mmHg 37%
    20:00 +23°C° 0 mm 4 m/S 622 mmHg 39%
    21:00 +21°C° 0 mm 4 m/S 622 mmHg 41%
    22:00 +20°C° 0 mm 4 m/S 622 mmHg 42%
    23:00 +19°C° 0 mm 3 m/S 622 mmHg 42%

    30 Juni, Freitag

    Zeit Temperatur Niederschläge Wind Luftdruck Luftfeuchtigkeit
    00:00 +18°C° 0 mm 3 m/S 621 mmHg 43%
    01:00 +18°C° 0 mm 3 m/S 621 mmHg 44%
    02:00 +17°C° 0 mm 3 m/S 621 mmHg 44%
    03:00 +17°C° 0 mm 3 m/S 621 mmHg 45%
    04:00 +17°C° 0,1 mm 3 m/S 622 mmHg 43%
    05:00 +18°C° 0,1 mm 3 m/S 622 mmHg 42%
    06:00 +18°C° 0,1 mm 3 m/S 622 mmHg 41%
    07:00 +20°C° 0 mm 3 m/S 623 mmHg 35%
    08:00 +22°C° 0 mm 4 m/S 624 mmHg 30%
    09:00 +25°C° 0 mm 4 m/S 624 mmHg 24%
    10:00 +26°C° 0 mm 5 m/S 624 mmHg 23%
    11:00 +28°C° 0 mm 5 m/S 624 mmHg 21%
    12:00 +29°C° 0 mm 6 m/S 624 mmHg 20%
    13:00 +29°C° 0 mm 6 m/S 624 mmHg 20%
    14:00 +29°C° 0 mm 7 m/S 624 mmHg 20%
    15:00 +29°C° 0 mm 8 m/S 624 mmHg 20%
    16:00 +28°C° 0 mm 8 m/S 623 mmHg 22%
    17:00 +27°C° 0 mm 8 m/S 623 mmHg 25%
    18:00 +24°C° 0 mm 7 m/S 623 mmHg 27%
    19:00 +23°C° 0 mm 7 m/S 623 mmHg 31%
    20:00 +21°C° 0 mm 6 m/S 623 mmHg 35%
    21:00 +19°C° 0 mm 5 m/S 623 mmHg 39%
    22:00 +18°C° 0 mm 4 m/S 623 mmHg 42%
    23:00 +17°C° 0 mm 4 m/S 623 mmHg 45%

    1 Juli, Samstag

    Zeit Temperatur Niederschläge Wind Luftdruck Luftfeuchtigkeit
    00:00 +17°C° 0 mm 4 m/S 623 mmHg 48%
    01:00 +15°C° 0 mm 4 m/S 622 mmHg 49%
    02:00 +14°C° 0 mm 4 m/S 622 mmHg 49%
    03:00 +14°C° 0 mm 3 m/S 622 mmHg 50%
    04:00 +14°C° 0 mm 4 m/S 623 mmHg 48%
    05:00 +15°C° 0 mm 4 m/S 623 mmHg 46%
    06:00 +15°C° 0 mm 4 m/S 624 mmHg 43%
    07:00 +18°C° 0 mm 4 m/S 624 mmHg 39%
    08:00 +21°C° 0 mm 5 m/S 625 mmHg 34%
    09:00 +23°C° 0 mm 6 m/S 626 mmHg 30%
    10:00 +24°C° 0 mm 6 m/S 626 mmHg 28%
    11:00 +26°C° 0 mm 7 m/S 626 mmHg 27%
    12:00 +28°C° 0 mm 7 m/S 626 mmHg 25%
    13:00 +28°C° 0 mm 8 m/S 626 mmHg 26%
    14:00 +28°C° 0 mm 8 m/S 626 mmHg 27%
    15:00 +28°C° 0 mm 9 m/S 625 mmHg 27%
    16:00 +27°C° 0,2 mm 8 m/S 625 mmHg 30%
    17:00 +26°C° 0,2 mm 8 m/S 625 mmHg 33%
    18:00 +24°C° 0,2 mm 8 m/S 625 mmHg 35%
    19:00 +22°C° 0 mm 7 m/S 624 mmHg 40%
    20:00 +20°C° 0 mm 6 m/S 624 mmHg 44%
    21:00 +18°C° 0 mm 4 m/S 624 mmHg 49%
    22:00 +18°C° 0 mm 4 m/S 624 mmHg 52%
    23:00 +17°C° 0 mm 4 m/S 624 mmHg 54%
    Mehr zeigen